| time (UTC) | temp C | wind direction | speed KPH | gust KPH | rain 1hr cm | rain 24hr cm | rain mn cm | humidity % | barometer mb |
| 20260505075804 | 21 | 203 | 4.8 | 19.3 | 0.00 | 0.00 | 0.00 | 45 | 1010.8 |
| 20260505075304 | 21 | 135 | 3.2 | 17.7 | 0.00 | 0.00 | 0.00 | 45 | 1010.8 |
| 20260505074802 | 21 | 180 | 3.2 | 19.3 | 0.00 | 0.00 | 0.00 | 41 | 1010.8 |
| 20260505074302 | 21 | 180 | 3.2 | 19.3 | 0.00 | 0.00 | 0.00 | 40 | 1010.5 |
| 20260505073802 | 21 | 158 | 4.8 | 19.3 | 0.00 | 0.00 | 0.00 | 40 | 1010.8 |
| 20260505073303 | 21 | 203 | 3.2 | 16.1 | 0.00 | 0.00 | 0.00 | 40 | 1010.5 |
| 20260505072803 | 21 | 180 | 3.2 | 12.9 | 0.00 | 0.00 | 0.00 | 40 | 1010.8 |
| 20260505072308 | 21 | 158 | 3.2 | 12.9 | 0.00 | 0.00 | 0.00 | 40 | 1010.5 |
| 20260505072305 | 21 | 225 | 3.2 | 12.9 | 0.00 | 0.00 | 0.00 | 40 | 1010.5 |
| 20260505071304 | 21 | 158 | 3.2 | 16.1 | 0.00 | 0.00 | 0.00 | 40 | 1010.5 |
| 20260505070802 | 21 | 203 | 3.2 | 16.1 | 0.00 | 0.00 | 0.00 | 40 | 1010.8 |
| 20260505070532 | 21 | 135 | 3.2 | 12.9 | 0.00 | 0.00 | 0.00 | 40 | 1010.8 |
| 20260505065801 | 21 | 203 | 3.2 | 17.7 | 0.00 | 0.00 | 0.00 | 40 | 1010.8 |
| 20260505065534 | 21 | 158 | 3.2 | 17.7 | 0.00 | 0.00 | 0.00 | 39 | 1010.5 |
| 20260505065033 | 21 | 248 | 3.2 | 19.3 | 0.00 | 0.00 | 0.00 | 37 | 1010.8 |
| 20260505064303 | 21 | 158 | 4.8 | 19.3 | 0.00 | 0.00 | 0.00 | 37 | 1010.5 |
| 20260505063802 | 21 | 180 | 4.8 | 17.7 | 0.00 | 0.00 | 0.00 | 35 | 1010.5 |
| 20260505063303 | 22 | 203 | 3.2 | 17.7 | 0.00 | 0.00 | 0.00 | 35 | 1010.0 |
| 20260505062803 | 22 | 180 | 3.2 | 16.1 | 0.00 | 0.00 | 0.00 | 34 | 1010.0 |
| 20260505062304 | 22 | 180 | 3.2 | 17.7 | 0.00 | 0.00 | 0.00 | 34 | 1010.0 |
| 20260505061801 | 22 | 180 | 3.2 | 17.7 | 0.00 | 0.00 | 0.00 | 32 | 1010.0 |
| 20260505061301 | 22 | 135 | 3.2 | 20.9 | 0.00 | 0.00 | 0.00 | 31 | 1010.0 |
| 20260505060802 | 22 | 203 | 3.2 | 20.9 | 0.00 | 0.00 | 0.00 | 30 | 1010.0 |
| 20260505060302 | 22 | 180 | 4.8 | 17.7 | 0.00 | 0.00 | 0.00 | 30 | 1010.0 |
| 20260505055802 | 22 | 158 | 4.8 | 19.3 | 0.00 | 0.00 | 0.00 | 29 | 1010.0 |
| 20260505055303 | 22 | 180 | 3.2 | 19.3 | 0.00 | 0.00 | 0.00 | 27 | 1010.0 |
| 20260505055034 | 22 | 158 | 3.2 | 16.1 | 0.00 | 0.00 | 0.00 | 27 | 1010.0 |
| 20260505054302 | 22 | 225 | 3.2 | 16.1 | 0.00 | 0.00 | 0.00 | 27 | 1010.0 |
| 20260505053801 | 22 | 203 | 3.2 | 12.9 | 0.00 | 0.00 | 0.00 | 29 | 1010.5 |
| 20260505053301 | 22 | 135 | 3.2 | 11.3 | 0.00 | 0.00 | 0.00 | 29 | 1010.5 |
| 20260505052800 | 22 | 158 | 1.6 | 14.5 | 0.00 | 0.00 | 0.00 | 29 | 1010.5 |
| 20260505052301 | 22 | 158 | 3.2 | 14.5 | 0.00 | 0.00 | 0.00 | 30 | 1010.8 |
| 20260505051802 | 22 | 180 | 3.2 | 14.5 | 0.00 | 0.00 | 0.00 | 30 | 1010.8 |
| 20260505051302 | 23 | 203 | 3.2 | 12.9 | 0.00 | 0.00 | 0.00 | 30 | 1010.8 |
| 20260505050802 | 23 | 203 | 3.2 | 14.5 | 0.00 | 0.00 | 0.00 | 29 | 1010.8 |
| 20260505050302 | 23 | 180 | 3.2 | 14.5 | 0.00 | 0.00 | 0.00 | 29 | 1010.5 |
| 20260505041519 | 24 | 90 | 1.6 | 6.4 | 0.00 | 0.00 | 0.00 | 39 | 1010.0 |
| 20260505041016 | 24 | 203 | 0.0 | 6.4 | 0.00 | 0.00 | 0.00 | 39 | 1010.0 |
| 20260505040512 | 24 | 113 | 0.0 | 6.4 | 0.00 | 0.00 | 0.00 | 37 | 1010.0 |
| 20260505035740 | 24 | 225 | 1.6 | 6.4 | 0.00 | 0.00 | 0.00 | 37 | 1010.0 |
| 20260505035240 | 24 | 225 | 1.6 | 8.0 | 0.00 | 0.00 | 0.00 | 37 | 1010.0 |
| 20260505034742 | 24 | 248 | 1.6 | 8.0 | 0.00 | 0.00 | 0.00 | 37 | 1010.0 |
| 20260505034513 | 24 | 180 | 1.6 | 11.3 | 0.00 | 0.00 | 0.00 | 37 | 1009.7 |
| 20260505033742 | 24 | 180 | 1.6 | 11.3 | 0.00 | 0.00 | 0.00 | 37 | 1009.7 |
| 20260505033241 | 24 | 248 | 1.6 | 9.7 | 0.00 | 0.00 | 0.00 | 37 | 1009.7 |
| 20260505032741 | 24 | 203 | 0.0 | 6.4 | 0.00 | 0.00 | 0.00 | 37 | 1009.7 |
| 20260505032240 | 24 | 225 | 1.6 | 4.8 | 0.00 | 0.00 | 0.00 | 37 | 1009.3 |
| 20260505031740 | 24 | 180 | 1.6 | 4.8 | 0.00 | 0.00 | 0.00 | 35 | 1009.3 |
| 20260505031511 | 24 | 248 | 0.0 | 4.8 | 0.00 | 0.00 | 0.00 | 35 | 1009.0 |
| 20260505030741 | 24 | 203 | 0.0 | 4.8 | 0.00 | 0.00 | 0.00 | 35 | 1009.3 |
| 20260505030240 | 24 | 158 | 0.0 | 8.0 | 0.00 | 0.00 | 0.00 | 35 | 1009.0 |
| 20260505025722 | 24 | 270 | 1.6 | 8.0 | 0.00 | 0.00 | 0.00 | 35 | 1009.0 |
| 20260505025222 | 24 | 248 | 1.6 | 9.7 | 0.00 | 0.00 | 0.00 | 35 | 1009.0 |
| 20260505024722 | 25 | 225 | 1.6 | 9.7 | 0.00 | 0.00 | 0.00 | 35 | 1009.3 |
| 20260505024222 | 25 | 180 | 3.2 | 9.7 | 0.00 | 0.00 | 0.00 | 35 | 1009.0 |
| 20260505023722 | 25 | 203 | 1.6 | 9.7 | 0.00 | 0.00 | 0.00 | 35 | 1009.0 |
| 20260505023221 | 25 | 180 | 1.6 | 9.7 | 0.00 | 0.00 | 0.00 | 34 | 1009.3 |
| 20260505022721 | 25 | 225 | 1.6 | 9.7 | 0.00 | 0.00 | 0.00 | 34 | 1009.3 |
| 20260505022222 | 25 | 203 | 1.6 | 9.7 | 0.00 | 0.00 | 0.00 | 34 | 1009.0 |
| 20260505021721 | 25 | 225 | 1.6 | 6.4 | 0.00 | 0.00 | 0.00 | 32 | 1009.0 |
| 20260505021223 | 25 | 203 | 1.6 | 6.4 | 0.00 | 0.00 | 0.00 | 34 | 1009.0 |
| 20260505020722 | 25 | 180 | 1.6 | 4.8 | 0.00 | 0.00 | 0.00 | 34 | 1009.3 |
| 20260505020223 | 25 | 180 | 0.0 | 4.8 | 0.00 | 0.00 | 0.00 | 32 | 1009.0 |
| 20260505015722 | 25 | 180 | 0.0 | 4.8 | 0.00 | 0.00 | 0.00 | 32 | 1009.0 |
| 20260505015204 | 25 | 270 | 0.0 | 6.4 | 0.00 | 0.00 | 0.00 | 32 | 1009.0 |
| 20260505014934 | 25 | 225 | 1.6 | 6.4 | 0.00 | 0.00 | 0.00 | 31 | 1009.0 |
| 20260505014433 | 25 | 180 | 0.0 | 6.4 | 0.00 | 0.00 | 0.00 | 31 | 1009.0 |
| 20260505013702 | 25 | 203 | 1.6 | 6.4 | 0.00 | 0.00 | 0.00 | 31 | 1008.7 |
| 20260505013202 | 25 | 225 | 1.6 | 6.4 | 0.00 | 0.00 | 0.00 | 32 | 1008.7 |
| 20260505012645 | 25 | 203 | 0.0 | 4.8 | 0.00 | 0.00 | 0.00 | 31 | 1008.7 |
| 20260505012146 | 26 | 180 | 0.0 | 3.2 | 0.00 | 0.00 | 0.00 | 34 | 1009.0 |
| 20260505011645 | 26 | 225 | 0.0 | 3.2 | 0.00 | 0.00 | 0.00 | 32 | 1009.0 |
| 20260505011416 | 26 | 203 | 0.0 | 3.2 | 0.00 | 0.00 | 0.00 | 34 | 1009.0 |
| 20260505010645 | 26 | 68 | 0.0 | 6.4 | 0.00 | 0.00 | 0.00 | 35 | 1008.7 |
| 20260505010144 | 26 | 248 | 1.6 | 6.4 | 0.00 | 0.00 | 0.00 | 35 | 1009.0 |
| 20260505005643 | 26 | 248 | 1.6 | 6.4 | 0.00 | 0.00 | 0.00 | 34 | 1008.7 |
| 20260505005144 | 26 | 270 | 1.6 | 6.4 | 0.00 | 0.00 | 0.00 | 34 | 1009.0 |
| 20260505004644 | 26 | 270 | 1.6 | 6.4 | 0.00 | 0.00 | 0.00 | 34 | 1009.0 |
| 20260505004145 | 26 | 158 | 0.0 | 6.4 | 0.00 | 0.00 | 0.00 | 32 | 1008.7 |
| 20260505003645 | 26 | 180 | 1.6 | 6.4 | 0.00 | 0.00 | 0.00 | 34 | 1009.0 |
| 20260505003145 | 26 | 203 | 0.0 | 4.8 | 0.00 | 0.00 | 0.00 | 32 | 1008.7 |
| 20260505002645 | 26 | 270 | 0.0 | 6.4 | 0.00 | 0.00 | 0.00 | 34 | 1009.0 |
| 20260505002145 | 26 | 248 | 1.6 | 6.4 | 0.00 | 0.00 | 0.00 | 34 | 1009.0 |
| 20260505001644 | 26 | 203 | 0.0 | 6.4 | 0.00 | 0.00 | 0.00 | 34 | 1009.0 |
| 20260505001415 | 26 | 293 | 0.0 | 6.4 | 0.00 | 0.00 | 0.00 | 34 | 1009.0 |
| 20260505000643 | 26 | 338 | 1.6 | 6.4 | 0.00 | 0.00 | 0.00 | 34 | 1009.0 |
| 20260505000415 | 26 | 180 | 1.6 | 6.4 | 0.00 | 0.00 | 0.00 | 34 | 1009.3 |
| 20260504235645 | 26 | 90 | 1.6 | 4.8 | 0.00 | 0.00 | 0.00 | 34 | 1009.3 |
| 20260504235145 | 26 | 270 | 0.0 | 4.8 | 0.00 | 0.00 | 0.00 | 35 | 1009.3 |
| 20260504234644 | 26 | 68 | 0.0 | 6.4 | 0.00 | 0.00 | 0.00 | 35 | 1009.3 |
| 20260504234415 | 26 | 23 | 1.6 | 6.4 | 0.00 | 0.00 | 0.00 | 35 | 1009.7 |
| 20260504233644 | 26 | 270 | 1.6 | 6.4 | 0.00 | 0.00 | 0.00 | 34 | 1009.3 |
| 20260504233144 | 26 | 270 | 0.0 | 6.4 | 0.00 | 0.00 | 0.00 | 34 | 1009.3 |
| 20260504232915 | 26 | 270 | 0.0 | 8.0 | 0.00 | 0.00 | 0.00 | 34 | 1009.3 |
| 20260504232143 | 26 | 0 | 1.6 | 8.0 | 0.00 | 0.00 | 0.00 | 35 | 1009.3 |
| 20260504231643 | 27 | 338 | 1.6 | 8.0 | 0.00 | 0.00 | 0.00 | 35 | 1009.3 |
| 20260504231415 | 27 | 23 | 1.6 | 8.0 | 0.00 | 0.00 | 0.00 | 35 | 1009.3 |
| 20260504230645 | 26 | 68 | 1.6 | 8.0 | 0.00 | 0.00 | 0.00 | 35 | 1009.3 |
| 20260504230145 | 26 | 338 | 1.6 | 8.0 | 0.00 | 0.00 | 0.00 | 35 | 1009.0 |
| 20260504225644 | 26 | 270 | 1.6 | 8.0 | 0.00 | 0.00 | 0.00 | 35 | 1009.7 |
| 20260504225144 | 26 | 68 | 0.0 | 8.0 | 0.00 | 0.00 | 0.00 | 35 | 1009.7 |
| 20260504224643 | 26 | 293 | 1.6 | 9.7 | 0.00 | 0.00 | 0.00 | 35 | 1009.3 |
| 20260504224143 | 26 | 338 | 1.6 | 9.7 | 0.00 | 0.00 | 0.00 | 35 | 1009.3 |
| 20260504223643 | 26 | 45 | 1.6 | 9.7 | 0.00 | 0.00 | 0.00 | 35 | 1009.7 |
| 20260504223143 | 26 | 270 | 1.6 | 9.7 | 0.00 | 0.00 | 0.00 | 35 | 1009.7 |
| 20260504222644 | 26 | 225 | 1.6 | 12.9 | 0.00 | 0.00 | 0.00 | 35 | 1009.3 |
| 20260504222415 | 26 | 270 | 1.6 | 12.9 | 0.00 | 0.00 | 0.00 | 35 | 1009.7 |
| 20260504221644 | 26 | 90 | 1.6 | 11.3 | 0.00 | 0.00 | 0.00 | 35 | 1009.7 |
| 20260504221144 | 26 | 315 | 1.6 | 11.3 | 0.00 | 0.00 | 0.00 | 35 | 1009.7 |
| 20260504220644 | 26 | 45 | 1.6 | 9.7 | 0.00 | 0.00 | 0.00 | 35 | 1009.7 |
| 20260504220415 | 26 | 0 | 1.6 | 11.3 | 0.00 | 0.00 | 0.00 | 35 | 1009.7 |
| 20260504215643 | 26 | 180 | 1.6 | 11.3 | 0.00 | 0.00 | 0.00 | 35 | 1010.0 |
| 20260504215143 | 26 | 270 | 1.6 | 6.4 | 0.00 | 0.00 | 0.00 | 35 | 1009.7 |
| 20260504214643 | 26 | 68 | 0.0 | 6.4 | 0.00 | 0.00 | 0.00 | 35 | 1009.7 |
| 20260504214143 | 26 | 23 | 1.6 | 6.4 | 0.00 | 0.00 | 0.00 | 35 | 1010.0 |
| 20260504213644 | 26 | 0 | 0.0 | 8.0 | 0.00 | 0.00 | 0.00 | 35 | 1010.5 |
| 20260504213145 | 26 | 23 | 1.6 | 11.3 | 0.00 | 0.00 | 0.00 | 35 | 1010.5 |
| 20260504212915 | 26 | 0 | 1.6 | 11.3 | 0.00 | 0.00 | 0.00 | 35 | 1010.5 |
| 20260504212143 | 26 | 248 | 3.2 | 11.3 | 0.00 | 0.00 | 0.00 | 35 | 1010.5 |
| 20260504211643 | 26 | 293 | 3.2 | 11.3 | 0.00 | 0.00 | 0.00 | 35 | 1010.8 |
| 20260504211148 | 26 | 180 | 1.6 | 14.5 | 0.00 | 0.00 | 0.00 | 32 | 1010.5 |
| 20260504211144 | 26 | 158 | 3.2 | 11.3 | 0.00 | 0.00 | 0.00 | 34 | 1010.8 |
| 20260504210142 | 26 | 180 | 3.2 | 14.5 | 0.00 | 0.00 | 0.00 | 32 | 1010.8 |
| 20260504205642 | 26 | 203 | 3.2 | 12.9 | 0.00 | 0.00 | 0.00 | 31 | 1010.5 |
| 20260504205143 | 26 | 270 | 3.2 | 12.9 | 0.00 | 0.00 | 0.00 | 31 | 1010.8 |
| 20260504204643 | 26 | 180 | 3.2 | 12.9 | 0.00 | 0.00 | 0.00 | 31 | 1010.8 |
| 20260504204143 | 26 | 270 | 3.2 | 12.9 | 0.00 | 0.00 | 0.00 | 32 | 1010.8 |
| 20260504203914 | 26 | 180 | 3.2 | 12.9 | 0.00 | 0.00 | 0.00 | 31 | 1010.8 |
| 20260504203143 | 26 | 270 | 1.6 | 14.5 | 0.00 | 0.00 | 0.00 | 32 | 1010.8 |
| 20260504202645 | 26 | 203 | 3.2 | 11.3 | 0.00 | 0.00 | 0.00 | 34 | 1010.5 |
| 20260504202641 | 26 | 203 | 3.2 | 14.5 | 0.00 | 0.00 | 0.00 | 32 | 1010.5 |
| 20260504201912 | 26 | 158 | 3.2 | 11.3 | 0.00 | 0.00 | 0.00 | 34 | 1010.8 |
| 20260504201142 | 26 | 158 | 3.2 | 11.3 | 0.00 | 0.00 | 0.00 | 34 | 1010.8 |
| 20260504200642 | 26 | 203 | 3.2 | 16.1 | 0.00 | 0.00 | 0.00 | 34 | 1010.8 |
| 20260504200142 | 26 | 225 | 3.2 | 16.1 | 0.00 | 0.00 | 0.00 | 34 | 1010.8 |
| 20260504195914 | 26 | 180 | 3.2 | 11.3 | 0.00 | 0.00 | 0.00 | 32 | 1010.8 |
| 20260504195859 | 26 | 203 | 1.6 | 11.3 | 0.00 | 0.00 | 0.00 | 34 | 1010.8 |
| 20260504194640 | 26 | 158 | 3.2 | 12.9 | 0.00 | 0.00 | 0.00 | 32 | 1010.8 |
| 20260504194141 | 26 | 203 | 3.2 | 14.5 | 0.00 | 0.00 | 0.00 | 32 | 1010.8 |
| 20260504193641 | 26 | 180 | 1.6 | 14.5 | 0.00 | 0.00 | 0.00 | 32 | 1010.8 |
| 20260504193140 | 26 | 158 | 1.6 | 11.3 | 0.00 | 0.00 | 0.00 | 32 | 1011.1 |
| 20260504192642 | 26 | 203 | 3.2 | 14.5 | 0.00 | 0.00 | 0.00 | 31 | 1010.8 |
| 20260504192141 | 26 | 180 | 1.6 | 12.9 | 0.00 | 0.00 | 0.00 | 34 | 1011.1 |
| 20260504191642 | 26 | 203 | 3.2 | 12.9 | 0.00 | 0.00 | 0.00 | 32 | 1011.1 |
| 20260504191142 | 26 | 203 | 3.2 | 11.3 | 0.00 | 0.00 | 0.00 | 32 | 1010.8 |
| 20260504190641 | 25 | 270 | 1.6 | 12.9 | 0.00 | 0.00 | 0.00 | 34 | 1010.5 |
| 20260504190141 | 25 | 248 | 1.6 | 12.9 | 0.00 | 0.00 | 0.00 | 32 | 1010.8 |
| 20260504185640 | 25 | 270 | 3.2 | 11.3 | 0.00 | 0.00 | 0.00 | 34 | 1010.8 |
| 20260504185140 | 25 | 203 | 1.6 | 11.3 | 0.00 | 0.00 | 0.00 | 32 | 1010.8 |
| 20260504184640 | 25 | 203 | 1.6 | 11.3 | 0.00 | 0.00 | 0.00 | 32 | 1010.5 |
| 20260504184142 | 25 | 180 | 3.2 | 12.9 | 0.00 | 0.00 | 0.00 | 32 | 1010.8 |
| 20260504183641 | 25 | 90 | 1.6 | 12.9 | 0.00 | 0.00 | 0.00 | 34 | 1010.8 |
| 20260504183413 | 25 | 180 | 3.2 | 11.3 | 0.00 | 0.00 | 0.00 | 32 | 1011.1 |
| 20260504182641 | 25 | 225 | 1.6 | 11.3 | 0.00 | 0.00 | 0.00 | 32 | 1011.1 |
| 20260504182141 | 25 | 248 | 3.2 | 11.3 | 0.00 | 0.00 | 0.00 | 32 | 1011.1 |
| 20260504181640 | 25 | 135 | 3.2 | 14.5 | 0.00 | 0.00 | 0.00 | 32 | 1011.5 |
| 20260504181140 | 25 | 225 | 3.2 | 14.5 | 0.00 | 0.00 | 0.00 | 32 | 1011.5 |
| 20260504180640 | 25 | 270 | 3.2 | 11.3 | 0.00 | 0.00 | 0.00 | 32 | 1011.1 |
| 20260504180139 | 25 | 270 | 1.6 | 9.7 | 0.00 | 0.00 | 0.00 | 32 | 1011.1 |
| 20260504175641 | 25 | 270 | 3.2 | 9.7 | 0.00 | 0.00 | 0.00 | 32 | 1010.5 |
| 20260504175412 | 25 | 180 | 1.6 | 9.7 | 0.00 | 0.00 | 0.00 | 30 | 1010.8 |
| 20260504174641 | 25 | 203 | 1.6 | 11.3 | 0.00 | 0.00 | 0.00 | 31 | 1010.8 |
| 20260504174140 | 25 | 203 | 3.2 | 11.3 | 0.00 | 0.00 | 0.00 | 30 | 1010.8 |
| 20260504173641 | 25 | 203 | 3.2 | 11.3 | 0.00 | 0.00 | 0.00 | 31 | 1010.8 |
| 20260504173141 | 25 | 180 | 1.6 | 12.9 | 0.00 | 0.00 | 0.00 | 32 | 1010.8 |
| 20260504172639 | 25 | 180 | 3.2 | 12.9 | 0.00 | 0.00 | 0.00 | 32 | 1010.8 |
| 20260504172410 | 25 | 158 | 3.2 | 14.5 | 0.00 | 0.00 | 0.00 | 32 | 1010.8 |
| 20260504171640 | 25 | 158 | 3.2 | 14.5 | 0.00 | 0.00 | 0.00 | 31 | 1011.1 |
| 20260504171141 | 25 | 158 | 3.2 | 14.5 | 0.00 | 0.00 | 0.00 | 32 | 1011.1 |
| 20260504170641 | 25 | 203 | 3.2 | 14.5 | 0.00 | 0.00 | 0.00 | 32 | 1011.1 |
| 20260504170141 | 25 | 180 | 3.2 | 12.9 | 0.00 | 0.00 | 0.00 | 31 | 1011.5 |
| 20260504160119 | 24 | 203 | 4.8 | 20.9 | 0.00 | 0.00 | 0.00 | 34 | 1010.8 |
| 20260504151119 | 23 | 158 | 3.2 | 12.9 | 0.00 | 0.00 | 0.00 | 39 | 1010.8 |
| 20260504150618 | 23 | 158 | 3.2 | 14.5 | 0.00 | 0.00 | 0.00 | 40 | 1010.5 |
| 20260504150118 | 23 | 293 | 3.2 | 14.5 | 0.00 | 0.00 | 0.00 | 40 | 1010.5 |
| 20260504141119 | 23 | 180 | 3.2 | 9.7 | 0.00 | 0.00 | 0.00 | 41 | 1010.0 |
| 20260504140619 | 23 | 113 | 1.6 | 6.4 | 0.00 | 0.00 | 0.00 | 41 | 1010.0 |
| 20260504140119 | 23 | 203 | 0.0 | 6.4 | 0.00 | 0.00 | 0.00 | 43 | 1010.5 |
| 20260504130618 | 23 | 225 | 1.6 | 9.7 | 0.00 | 0.00 | 0.00 | 43 | 1010.0 |
| 20260504130117 | 23 | 203 | 1.6 | 9.7 | 0.00 | 0.00 | 0.00 | 40 | 1009.3 |
| 20260504120117 | 23 | 270 | 0.0 | 0.0 | 0.00 | 0.00 | 0.00 | 39 | 1009.0 |
| 20260504110617 | 23 | 225 | 0.0 | 4.8 | 0.00 | 0.00 | 0.00 | 37 | 1009.0 |
| 20260504110348 | 23 | 158 | 0.0 | 0.0 | 0.00 | 0.00 | 0.00 | 37 | 1009.0 |
| 20260504100118 | 24 | 180 | 1.6 | 8.0 | 0.00 | 0.00 | 0.00 | 35 | 1009.0 |
| 20260504081615 | 25 | 180 | 1.6 | 12.9 | 0.00 | 0.00 | 0.00 | 35 | 1008.7 |
| 20260504081116 | 25 | 158 | 1.6 | 12.9 | 0.00 | 0.00 | 0.00 | 35 | 1009.0 |
| 20260504080615 | 25 | 225 | 1.6 | 9.7 | 0.00 | 0.00 | 0.00 | 35 | 1009.0 |
| 20260504080117 | 25 | 158 | 1.6 | 9.7 | 0.00 | 0.00 | 0.00 | 35 | 1008.7 |